Powrót do katalogu

STARLINK-36219

AktywnyŁącznośćVLEO
NORAD 67125·PAYLOAD·🇺🇸 United States

Wystrzelony Dec 15, 2025 z Cape Canaveral Space Force Station

Loading…

Następne Przeloty (najbliższe 24 godziny)

TLE

ŚwieżeSource: CelesTrak SupGP

Epoka: Sep 15, 2026, 04:00 UTC

1 67125C 25299Z   26258.16715278  .00015635  00000+0  56637-3 0  2585
2 67125  43.0033 178.9119 0001311 273.5371 116.0226 15.27566589    19

Śledź STARLINK-36219 w czasie rzeczywistym z AllMySat

Download on the App Store